�ϑ��N����,2020/09/28,,,
�ϑ���,�F�{���^,,,
�ϑ��n�_,12,,,
���x�v�ԍ�,A024,,,
,,,,
����,�C��,����,����,���l
9:30:00,21,3,0.5,
9:31:00,21,3,2.5,
9:32:00,21,4,2.5,
9:33:00,21,4,0.5,
9:34:00,21,5,0.5,
9:35:00,21,3,0.5,
9:36:00,21,-999,0,
9:37:00,21,-999,0,
9:38:00,21,4,0.5,
9:39:00,21.1,4,0.5,
9:40:00,21.2,4,0.5,
9:41:00,21.2,-999,0,
9:42:00,21.2,6,0.5,
9:43:00,21.2,6,2.5,
9:44:00,21.2,4,1.5,
9:45:00,21.1,7,0.5,
9:46:00,21.1,4,1.5,
9:47:00,21.1,8,1.5,
9:48:00,21.1,3,0.5,
9:49:00,21.1,-999,0,
9:50:00,21,-999,0,
9:51:00,21.1,8,1.5,
9:52:00,21,3,0.5,
9:53:00,21,5,0.5,
9:54:00,21,-999,0,
9:55:00,21.1,5,1.5,
9:56:00,21.1,-999,0,
9:57:00,21,-999,0,
9:58:00,21.1,5,2.5,
9:59:00,21.1,4,3.5,
10:00:00,21.1,4,0.5,
10:01:00,21,5,1.5,
10:02:00,21,-999,0,
10:03:00,21,1,0.5,
10:04:00,21.1,-999,0,
10:05:00,21.1,-999,0,
10:06:00,21.1,7,1.5,
10:07:00,21.2,4,0.5,
10:08:00,21.2,-999,0,
10:09:00,21.2,5,1.5,
10:10:00,21.2,-999,0,
10:11:00,21.5,6,0.5,
10:12:00,217,-999,0,
10:13:00,21.6,4,3.5,
10:14:00,21.5,-999,0,
10:15:00,21.4,4,1.5,
10:16:00,21.4,8,1.5,
10:17:00,21.3,2,0.5,
10:18:00,21.2,4,0.5,
10:19:00,21.2,5,0.5,
10:20:00,21.2,4,0.5,
10:21:00,21.2,8,1.5,
10:22:00,21.3,-999,0,
10:23:00,21.9,1,1.5,
10:24:00,22,3,0.5,
10:25:00,21.9,3,0.5,
10:26:00,22,8,0.5,
10:27:00,22,4,0.5,
10:28:00,22,8,1.5,
10:29:00,21.8,-99,0,
10:30:00,21.9,-999,0,
10:31:00,22,6,1.5,
10:32:00,21,2,0.5,
10:33:00,22.2,-999,0,
10:34:00,22.1,2,0.5,
10:35:00,22.2,-999,0,
10:36:00,22.2,1,0.5,
10:37:00,22.7,-999,0,
10:38:00,22.5,-999,0,
10:39:00,22.3,-999,0,
10:40:00,22.2,-999,0,
10:41:00,22.2,5,0.5,
10:42:00,22.2,3,0.5,
10:43:00,22.7,1,0.5,
10:44:00,23,-999,0,
10:45:00,23,-999,0,
10:46:00,23,-999,0,
10:47:00,23,6,2.5,
10:48:00,22.9,5,1.5,
10:49:00,22.8,-999,0,
10:50:00,23,-999,0,
10:51:00,22.9,-999,0,
10:52:00,23,3,0.5,
10:53:00,23,4,0.5,
10:54:00,23.1,-999,0,
10:55:00,23.1,7,0.5,
10:56:00,23,4,0.5,
10:57:00,23,-999,0,
10:58:00,22.9,5,0.5,
10:59:00,22.7,-999,0,
11:00:00,22.5,6,0.5,
11:01:00,22.5,5,0.5,
11:02:00,22.5,-999,0,
11:03:00,22.8,7,0.5,
11:04:00,23,2,0.5,
11:05:00,23,-999,0,
11:06:00,23.1,-999,0,
11:07:00,23.5,-999,0,
11:08:00,23.2,3,0.5,
11:09:00,23.5,-999,0,
11:10:00,23.7,-999,0,
11:11:00,23.9,-999,0,
11:12:00,23.9,5,0.5,
11:13:00,24,5,0.5,
11:14:00,24,1,0.5,
11:15:00,24,-999,0,
11:16:00,23.9,-999,0,
11:17:00,23.7,3,1.5,
11:18:00,23,3,0.5,
11:19:00,23.2,-999,0,
11:20:00,23.1,2,0.5,
11:21:00,23.1,-999,0,
11:22:00,23.1,-999,0,
11:23:00,23.1,-999,0,
11:24:00,23.1,1,0.5,
11:25:00,23,3,0.5,
11:26:00,23,8,0.5,
11:27:00,23,-999,0,
11:28:00,23,3,0.5,
11:29:00,22.9,1,1.5,
11:30:00,23.6,4,2.5,
